Location: Holyhead Bay
(53.3667°N, 4.6667°W)
Time: 06:04:47
(UTC+00:00)

Cosmos 2360 Rocket - Pass Details

Date: 24 November 2020
Orbit: 834 x 845 km, 71.0° (Epoch: 23 January)

Event Time Altitude Azimuth Distance (km) Brightness Sun altitude
Rises 17:25:11 0° 235° (SW) 3,377 7.1 -10.7°
Reaches altitude 10° 17:27:45 10° 242° (WSW) 2,445 6.1 -11.1°
Maximum altitude 17:33:04 43° 313° (NW) 1,165 3.2 -11.8°
Drops below altitude 10° 17:38:25 10° 25° (NNE) 2,457 4.2 -12.6°
Enters shadow 17:39:13 - 28° (NNE) 2,738 4.4 -12.7°
